Simultaneous Nadir Overpasses (SNOs) Predictions

Prediction of SNOs between GOES-15 and METOP-B Satellite Orbit:

Table of predicted SNOs for the next 14.0 days since TLE Epoch: 4/6/2018
Index Date Time (GOES-15) GOES-15 Lat,Lon METOP-B Lat,Lon Distance(km) Time Diff (sec)
1 04/07/2018 06:16:04 0.05,-135.03 0.86,-131.40 413.02 80
2 04/08/2018 18:32:16 -0.06,-135.07 0.12,-135.97 102.05 80
3 04/09/2018 18:14:15 -0.05,-135.10 -0.95,-130.97 470.57 80
4 04/11/2018 06:30:37 0.06,-135.15 -0.01,-135.58 48.13 80
5 04/13/2018 18:31:27 -0.07,-135.22 -0.09,-135.15 8.58 80
6 04/16/2018 06:29:48 0.07,-135.29 0.20,-134.76 60.85 80
7 04/17/2018 18:45:58 -0.08,-135.32 0.83,-139.31 456.00 80
8 04/18/2018 18:27:59 -0.07,-135.33 -0.30,-134.32 115.09 80
9 04/20/2018 06:44:19 0.09,-135.36 -0.71,-138.92 406.25 80




NCC Satellite Simultaneous Nadir Overpasses (SNOs) Prediction Service
